This is the latest recevied weather packets stored in our database for station/object KD9IXX-13. If no packets are shown the sender has not sent any weather packets the latest 10 day(s).
| Time | Temp. | Humidity | Pressure | Rain* | Wind** | Luminosity | Snow |
|---|---|---|---|---|---|---|---|
| 1787689802 | 26.11° C | 57% | 1019.5 hPa | 0 mm | - | 256 W/m² | - |
| 1787686201 | 26.11° C | 59% | 1020.1 hPa | 0 mm | - | 410 W/m² | - |
| 1787685902 | 26.11° C | 57% | 1020.2 hPa | 0 mm | - | 628 W/m² | - |
| 1787685602 | 25.56° C | 58% | 1020.3 hPa | 0 mm | - | 555 W/m² | - |
| 1787685001 | 25.56° C | 59% | 1020.5 hPa | 0 mm | - | 143 W/m² | - |
| 1787684702 | 26.11° C | 58% | 1020.3 hPa | 0 mm | - | 589 W/m² | - |
| 1787683803 | 25.56° C | 58% | 1020.4 hPa | 0 mm | - | 651 W/m² | - |
| 1787683202 | 25.56° C | 58% | 1020.4 hPa | 0 mm | - | 658 W/m² | - |
| 1787682002 | 25.56° C | 59% | 1020.7 hPa | 0 mm | - | 673 W/m² | - |
| 1787681102 | 25° C | 59% | 1020.8 hPa | 0 mm | - | 670 W/m² | - |
| 1787680502 | 25.56° C | 66% | 1021 hPa | 0 mm | - | 645 W/m² | - |
| 1787680202 | 25.56° C | 61% | 1021 hPa | 0 mm | - | 649 W/m² | - |
| 1787679302 | 24.44° C | 63% | 1021.4 hPa | 0 mm | - | 644 W/m² | - |
| 1787677502 | 24.44° C | 60% | 1021.7 hPa | 0 mm | - | 542 W/m² | - |
| 1787676902 | 24.44° C | 60% | 1022 hPa | 0 mm | - | 630 W/m² | - |
| 1787675403 | 23.89° C | 61% | 1022.8 hPa | 0 mm | - | 633 W/m² | - |
| 1787674802 | 24.44° C | 60% | 1022.5 hPa | 0 mm | - | 665 W/m² | - |
| 1787674502 | 24.44° C | 59% | 1022.6 hPa | 0 mm | - | 617 W/m² | - |
| 1787673902 | 23.89° C | 57% | 1022.6 hPa | 0 mm | - | 658 W/m² | - |
| 1787673602 | 23.89° C | 58% | 1022.6 hPa | 0 mm | - | 643 W/m² | - |
| 1787673302 | 23.89° C | 58% | 1022.8 hPa | 0 mm | - | 654 W/m² | - |
| 1787673002 | 23.89° C | 59% | 1022.5 hPa | 0 mm | - | 642 W/m² | - |
| 1787672703 | 23.89° C | 59% | 1022.4 hPa | 0 mm | - | 639 W/m² | - |
| 1787672102 | 23.89° C | 58% | 1022.4 hPa | 0 mm | - | 659 W/m² | - |
| 1787671803 | 23.89° C | 60% | 1022.6 hPa | 0 mm | - | 654 W/m² | - |
* Rain latest hour (hover to see other rain measurements)
** Current wind speed in m/s (hover to see current wind gust speed)